QPF
0.02 0.02 0.03 0.02 0.02 0.02 0.01 0.01 0.01 0.01 0.00 0.00 0.00 0.00 0.00 0.01 0.01 0.00 0.00 0.00 0.00 0.01 0.01 0.02 0.03 0.03 0.04 0.04 0.04 0.04 0.05 0.06 0.07 0.07 0.07 0.07 0.06 0.05
0.02 0.02 0.02 0.01 0.01 0.01 0.01 0.01 0.01 0.01 0.01 0.00 0.00 0.00 0.01 0.01 0.01 0.01 0.01 0.01 0.01 0.01 0.01 0.02 0.02 0.02 0.03 0.03 0.03 0.03 0.03 0.03 0.04 0.05 0.06 0.07 0.08 0.07
0.02 0.02 0.02 0.02 0.01 0.01 0.01 0.01 0.01 0.01 0.01 0.00 0.00 0.01 0.01 0.01 0.01 0.01 0.01 0.01 0.01 0.01 0.01 0.02 0.02 0.02 0.03 0.03 0.03 0.03 0.03 0.03 0.03 0.03 0.04 0.05 0.06 0.08
0.03 0.03 0.02 0.02 0.01 0.01 0.01 0.01 0.01 0.01 0.01 0.01 0.00 0.00 0.00 0.01 0.02 0.02 0.01 0.01 0.01 0.02 0.02 0.02 0.02 0.03 0.03 0.03 0.03 0.03 0.03 0.03 0.03 0.03 0.03 0.05 0.06 0.06
0.02 0.02 0.03 0.03 0.03 0.02 0.01 0.01 0.01 0.01 0.01 0.01 0.01 0.00 0.00 0.00 0.01 0.02 0.02 0.02 0.02 0.02 0.03 0.02 0.02 0.03 0.03 0.03 0.04 0.04 0.04 0.04 0.04 0.04 0.05 0.06 0.05 0.04
0.02 0.02 0.02 0.02 0.03 0.02 0.02 0.02 0.01 0.01 0.01 0.02 0.01 0.01 0.01 0.00 0.01 0.01 0.01 0.02 0.02 0.02 0.02 0.02 0.02 0.02 0.03 0.03 0.04 0.04 0.05 0.06 0.06 0.05 0.05 0.06 0.05 0.03
0.03 0.02 0.02 0.02 0.02 0.02 0.02 0.02 0.02 0.02 0.02 0.02 0.02 0.01 0.01 0.00 0.00 0.01 0.01 0.01 0.01 0.01 0.01 0.01 0.02 0.02 0.03 0.04 0.05 0.05 0.06 0.07 0.07 0.06 0.05 0.04 0.04 0.04
0.03 0.03 0.02 0.02 0.02 0.02 0.02 0.02 0.02 0.02 0.02 0.02 0.02 0.01 0.01 0.01 0.01 0.01 0.01 0.02 0.01 0.01 0.01 0.01 0.02 0.02 0.03 0.03 0.05 0.06 0.07 0.08 0.08 0.07 0.06 0.05 0.04 0.04
0.01 0.02 0.02 0.02 0.02 0.02 0.02 0.02 0.02 0.01 0.01 0.02 0.02 0.02 0.01 0.01 0.01 0.02 0.02 0.02 0.01 0.01 0.02 0.02 0.02 0.03 0.03 0.04 0.05 0.06 0.07 0.08 0.08 0.08 0.08 0.06 0.04 0.04
0.00 0.01 0.01 0.01 0.01 0.01 0.02 0.02 0.02 0.02 0.01 0.01 0.01 0.01 0.02 0.02 0.02 0.03 0.03 0.03 0.02 0.01 0.02 0.02 0.02 0.03 0.04 0.05 0.06 0.07 0.08 0.09 0.09 0.10 0.09 0.07 0.05 0.05
0.00 0.00 0.01 0.01 0.01 0.01 0.02 0.02 0.02 0.02 0.02 0.02 0.02 0.02 0.03 0.03 0.03 0.03 0.03 0.04 0.03 0.02 0.02 0.03 0.02 0.03 0.06 0.07 0.08 0.08 0.07 0.08 0.09 0.10 0.09 0.08 0.06 0.06
0.01 0.01 0.01 0.01 0.01 0.02 0.02 0.02 0.02 0.02 0.01 0.02 0.02 0.02 0.02 0.03 0.03 0.03 0.03 0.05 0.04 0.03 0.01 0.02 0.02 0.04 0.06 0.06 0.07 0.08 0.07 0.07 0.07 0.07 0.06 0.05 0.05 0.05
0.02 0.01 0.01 0.01 0.01 0.02 0.02 0.02 0.02 0.02 0.02 0.02 0.02 0.02 0.02 0.03 0.02 0.02 0.02 0.04 0.05 0.04 0.02 0.03 0.03 0.04 0.06 0.06 0.06 0.07 0.06 0.05 0.05 0.05 0.05 0.04 0.04 0.04
0.02 0.01 0.01 0.02 0.02 0.02 0.03 0.02 0.03 0.03 0.02 0.03 0.03 0.02 0.02 0.03 0.02 0.02 0.02 0.03 0.04 0.04 0.03 0.04 0.05 0.05 0.07 0.07 0.07 0.06 0.05 0.05 0.05 0.04 0.04 0.05 0.05 0.05
0.02 0.02 0.02 0.03 0.02 0.02 0.03 0.04 0.04 0.03 0.03 0.03 0.03 0.03 0.02 0.02 0.03 0.03 0.02 0.02 0.03 0.03 0.03 0.04 0.05 0.07 0.07 0.08 0.08 0.07 0.06 0.06 0.05 0.05 0.04 0.04 0.05 0.06
0.04 0.04 0.04 0.03 0.03 0.03 0.03 0.03 0.03 0.04 0.04 0.04 0.03 0.03 0.03 0.03 0.03 0.03 0.02 0.03 0.04 0.04 0.04 0.04 0.05 0.07 0.08 0.07 0.08 0.08 0.07 0.07 0.06 0.05 0.05 0.05 0.05 0.05
0.04 0.04 0.04 0.04 0.03 0.03 0.03 0.03 0.03 0.04 0.04 0.04 0.03 0.03 0.03 0.03 0.03 0.03 0.03 0.04 0.05 0.05 0.05 0.06 0.07 0.08 0.08 0.08 0.08 0.08 0.07 0.06 0.05 0.05 0.05 0.06 0.06 0.06
0.04 0.04 0.04 0.04 0.04 0.04 0.03 0.03 0.03 0.03 0.03 0.03 0.03 0.03 0.04 0.03 0.03 0.03 0.04 0.04 0.05 0.05 0.06 0.07 0.07 0.07 0.07 0.07 0.08 0.07 0.06 0.06 0.05 0.05 0.06 0.06 0.05 0.06
0.03 0.03 0.04 0.04 0.04 0.04 0.04 0.03 0.04 0.03 0.03 0.04 0.04 0.04 0.04 0.04 0.04 0.04 0.04 0.05 0.05 0.06 0.07 0.08 0.07 0.07 0.06 0.06 0.06 0.07 0.07 0.06 0.06 0.07 0.06 0.05 0.05 0.05
0.03 0.03 0.03 0.03 0.03 0.03 0.04 0.04 0.04 0.03 0.03 0.04 0.04 0.04 0.04 0.05 0.04 0.04 0.05 0.05 0.06 0.06 0.06 0.06 0.06 0.06 0.06 0.06 0.06 0.06 0.07 0.07 0.06 0.06 0.05 0.05 0.05 0.05
0.02 0.03 0.04 0.04 0.04 0.03 0.03 0.04 0.04 0.05 0.05 0.04 0.04 0.05 0.05 0.05 0.04 0.04 0.04 0.04 0.04 0.04 0.05 0.04 0.04 0.05 0.06 0.06 0.06 0.07 0.08 0.07 0.06 0.05 0.05 0.05 0.05 0.06
0.02 0.02 0.03 0.03 0.04 0.03 0.03 0.03 0.04 0.04 0.05 0.05 0.05 0.05 0.04 0.04 0.04 0.04 0.03 0.04 0.04 0.03 0.03 0.03 0.03 0.04 0.05 0.06 0.06 0.06 0.06 0.06 0.06 0.05 0.05 0.05 0.06 0.07
0.02 0.02 0.02 0.02 0.02 0.02 0.03 0.03 0.03 0.03 0.04 0.04 0.04 0.04 0.04 0.03 0.03 0.03 0.03 0.04 0.03 0.03 0.03 0.03 0.04 0.05 0.05 0.05 0.05 0.06 0.06 0.06 0.06 0.07 0.07 0.07 0.06 0.06
MSLP
1008.64 1008.94 1009.27 1009.62 1010.00 1010.39 1010.82 1011.29 1011.79 1012.33 1012.89 1013.48 1014.06 1014.62 1015.14 1015.62 1016.05 1016.44 1016.81 1017.16 1017.50 1017.85 1018.20 1018.54 1018.85 1019.11 1019.32 1019.45 1019.52 1019.52 1019.47 1019.38 1019.27 1019.12 1018.95 1018.72 1018.43 1018.06
1007.67 1007.88 1008.12 1008.41 1008.75 1009.16 1009.63 1010.18 1010.79 1011.47 1012.20 1012.94 1013.66 1014.34 1014.96 1015.51 1015.97 1016.38 1016.73 1017.06 1017.38 1017.69 1018.01 1018.32 1018.61 1018.86 1019.05 1019.18 1019.24 1019.25 1019.20 1019.13 1019.03 1018.90 1018.74 1018.53 1018.24 1017.86
1006.82 1006.94 1007.10 1007.33 1007.63 1008.03 1008.53 1009.14 1009.85 1010.64 1011.49 1012.36 1013.21 1014.00 1014.70 1015.30 1015.81 1016.23 1016.58 1016.90 1017.20 1017.50 1017.80 1018.09 1018.37 1018.60 1018.78 1018.91 1018.97 1018.97 1018.94 1018.88 1018.79 1018.69 1018.54 1018.34 1018.06 1017.68
1006.06 1006.11 1006.21 1006.39 1006.66 1007.04 1007.55 1008.19 1008.96 1009.82 1010.76 1011.71 1012.65 1013.51 1014.28 1014.93 1015.48 1015.93 1016.30 1016.63 1016.95 1017.25 1017.56 1017.86 1018.14 1018.38 1018.56 1018.68 1018.74 1018.75 1018.71 1018.66 1018.58 1018.49 1018.36 1018.17 1017.90 1017.53
1005.34 1005.36 1005.42 1005.56 1005.80 1006.17 1006.68 1007.33 1008.12 1009.01 1009.98 1010.98 1011.95 1012.86 1013.66 1014.36 1014.94 1015.43 1015.85 1016.23 1016.59 1016.94 1017.29 1017.63 1017.94 1018.20 1018.40 1018.53 1018.58 1018.59 1018.55 1018.49 1018.42 1018.32 1018.20 1018.02 1017.76 1017.39
1004.61 1004.62 1004.67 1004.81 1005.04 1005.39 1005.89 1006.54 1007.31 1008.20 1009.16 1010.15 1011.12 1012.03 1012.86 1013.58 1014.20 1014.75 1015.24 1015.69 1016.14 1016.58 1017.01 1017.41 1017.78 1018.08 1018.31 1018.45 1018.51 1018.50 1018.45 1018.37 1018.28 1018.17 1018.04 1017.86 1017.60 1017.24
1003.80 1003.83 1003.90 1004.05 1004.29 1004.65 1005.14 1005.77 1006.52 1007.38 1008.30 1009.25 1010.19 1011.09 1011.91 1012.65 1013.32 1013.94 1014.51 1015.07 1015.62 1016.17 1016.71 1017.21 1017.65 1018.01 1018.28 1018.43 1018.49 1018.46 1018.38 1018.27 1018.15 1018.01 1017.86 1017.66 1017.41 1017.05
1002.89 1002.94 1003.04 1003.22 1003.49 1003.87 1004.37 1004.99 1005.72 1006.54 1007.42 1008.32 1009.23 1010.09 1010.91 1011.68 1012.39 1013.08 1013.75 1014.41 1015.09 1015.76 1016.41 1017.01 1017.54 1017.97 1018.27 1018.44 1018.49 1018.44 1018.32 1018.17 1018.00 1017.82 1017.63 1017.42 1017.15 1016.80
1001.87 1001.93 1002.07 1002.29 1002.60 1003.02 1003.54 1004.17 1004.89 1005.69 1006.54 1007.41 1008.28 1009.13 1009.95 1010.74 1011.50 1012.26 1013.02 1013.80 1014.58 1015.37 1016.13 1016.83 1017.43 1017.91 1018.25 1018.43 1018.47 1018.40 1018.24 1018.04 1017.81 1017.58 1017.36 1017.11 1016.83 1016.48
1000.78 1000.84 1000.99 1001.25 1001.61 1002.08 1002.65 1003.31 1004.05 1004.86 1005.70 1006.57 1007.43 1008.28 1009.12 1009.94 1010.75 1011.58 1012.42 1013.28 1014.15 1015.03 1015.87 1016.64 1017.30 1017.82 1018.18 1018.38 1018.41 1018.31 1018.12 1017.87 1017.60 1017.32 1017.05 1016.77 1016.47 1016.13
999.72 999.75 999.90 1000.18 1000.58 1001.10 1001.73 1002.44 1003.22 1004.07 1004.94 1005.83 1006.73 1007.61 1008.48 1009.34 1010.20 1011.08 1011.98 1012.90 1013.83 1014.75 1015.64 1016.45 1017.14 1017.69 1018.06 1018.26 1018.30 1018.19 1017.97 1017.69 1017.38 1017.06 1016.75 1016.44 1016.12 1015.78
998.83 998.79 998.92 999.20 999.63 1000.19 1000.86 1001.63 1002.48 1003.38 1004.31 1005.25 1006.20 1007.13 1008.05 1008.96 1009.87 1010.79 1011.72 1012.67 1013.62 1014.56 1015.45 1016.26 1016.96 1017.51 1017.89 1018.10 1018.14 1018.03 1017.81 1017.52 1017.18 1016.84 1016.49 1016.16 1015.82 1015.47
998.25 998.14 998.21 998.47 998.89 999.47 1000.18 1001.00 1001.90 1002.86 1003.85 1004.86 1005.88 1006.87 1007.85 1008.81 1009.76 1010.70 1011.64 1012.59 1013.52 1014.43 1015.30 1016.08 1016.76 1017.30 1017.68 1017.89 1017.94 1017.85 1017.65 1017.36 1017.02 1016.66 1016.30 1015.94 1015.59 1015.22
998.15 997.94 997.94 998.14 998.53 999.09 999.80 1000.64 1001.57 1002.58 1003.62 1004.70 1005.77 1006.83 1007.86 1008.86 1009.84 1010.79 1011.72 1012.64 1013.53 1014.38 1015.19 1015.93 1016.56 1017.07 1017.45 1017.67 1017.74 1017.67 1017.49 1017.22 1016.90 1016.54 1016.16 1015.79 1015.41 1015.02
998.60 998.30 998.22 998.34 998.66 999.18 999.85 1000.66 1001.58 1002.59 1003.66 1004.77 1005.88 1006.98 1008.05 1009.08 1010.07 1011.01 1011.92 1012.78 1013.61 1014.39 1015.13 1015.79 1016.38 1016.85 1017.21 1017.43 1017.52 1017.48 1017.34 1017.09 1016.78 1016.43 1016.05 1015.65 1015.25 1014.83
999.63 999.26 999.09 999.13 999.36 999.77 1000.36 1001.10 1001.96 1002.93 1003.98 1005.07 1006.19 1007.30 1008.38 1009.41 1010.39 1011.31 1012.17 1012.97 1013.73 1014.43 1015.09 1015.68 1016.20 1016.63 1016.96 1017.19 1017.29 1017.28 1017.16 1016.94 1016.65 1016.29 1015.90 1015.48 1015.04 1014.60
1001.18 1000.76 1000.52 1000.46 1000.57 1000.87 1001.33 1001.94 1002.70 1003.58 1004.54 1005.58 1006.65 1007.72 1008.78 1009.78 1010.73 1011.61 1012.41 1013.16 1013.84 1014.46 1015.03 1015.55 1016.01 1016.40 1016.71 1016.92 1017.03 1017.03 1016.92 1016.72 1016.43 1016.08 1015.67 1015.22 1014.75 1014.27
1003.09 1002.65 1002.35 1002.19 1002.19 1002.35 1002.66 1003.12 1003.72 1004.46 1005.30 1006.22 1007.20 1008.20 1009.18 1010.13 1011.02 1011.84 1012.58 1013.26 1013.87 1014.43 1014.93 1015.39 1015.79 1016.14 1016.42 1016.62 1016.72 1016.72 1016.62 1016.42 1016.12 1015.75 1015.32 1014.84 1014.34 1013.82
1005.13 1004.69 1004.36 1004.13 1004.01 1004.03 1004.18 1004.47 1004.90 1005.46 1006.14 1006.92 1007.76 1008.64 1009.52 1010.38 1011.19 1011.93 1012.62 1013.23 1013.78 1014.28 1014.74 1015.14 1015.51 1015.83 1016.09 1016.27 1016.36 1016.35 1016.25 1016.03 1015.73 1015.34 1014.88 1014.37 1013.83 1013.28
1007.07 1006.66 1006.31 1006.03 1005.82 1005.71 1005.71 1005.83 1006.09 1006.47 1006.97 1007.57 1008.25 1008.99 1009.74 1010.48 1011.19 1011.85 1012.46 1013.02 1013.53 1013.99 1014.42 1014.80 1015.15 1015.46 1015.70 1015.88 1015.96 1015.95 1015.83 1015.61 1015.28 1014.87 1014.38 1013.84 1013.27 1012.69
1008.74 1008.37 1008.02 1007.70 1007.42 1007.22 1007.09 1007.07 1007.16 1007.37 1007.69 1008.12 1008.63 1009.19 1009.79 1010.40 1011.00 1011.58 1012.12 1012.62 1013.10 1013.54 1013.96 1014.36 1014.71 1015.03 1015.29 1015.47 1015.56 1015.55 1015.42 1015.18 1014.84 1014.41 1013.90 1013.34 1012.75 1012.15
1010.00 1009.67 1009.33 1009.00 1008.69 1008.42 1008.21 1008.08 1008.04 1008.10 1008.26 1008.52 1008.85 1009.25 1009.70 1010.17 1010.65 1011.13 1011.60 1012.06 1012.52 1012.97 1013.41 1013.83 1014.22 1014.57 1014.86 1015.07 1015.18 1015.18 1015.06 1014.82 1014.48 1014.03 1013.51 1012.93 1012.33 1011.71
1010.81 1010.52 1010.20 1009.88 1009.56 1009.26 1009.01 1008.81 1008.68 1008.63 1008.66 1008.77 1008.95 1009.19 1009.49 1009.81 1010.17 1010.56 1010.97 1011.40 1011.85 1012.31 1012.79 1013.26 1013.71 1014.12 1014.46 1014.72 1014.87 1014.90 1014.79 1014.57 1014.22 1013.77 1013.25 1012.67 1012.06 1011.44
Thickness
5552 5550 5547 5545 5542 5539 5535 5531 5526 5528 5535 5537 5534 5533 5529 5527 5526 5524 5524 5524 5524 5524 5525 5526 5527 5528 5528 5529 5530 5530 5531 5532 5534 5535 5537 5539 5541 5543
5540 5538 5535 5533 5530 5527 5523 5520 5516 5512 5516 5522 5520 5519 5517 5515 5513 5512 5511 5511 5511 5511 5512 5513 5514 5515 5515 5516 5516 5517 5518 5520 5522 5524 5526 5528 5529 5532
5529 5526 5523 5520 5518 5515 5511 5508 5505 5501 5500 5507 5507 5506 5504 5502 5501 5499 5498 5498 5498 5499 5499 5500 5501 5501 5503 5503 5503 5504 5506 5508 5509 5512 5514 5516 5518 5521
5517 5514 5511 5508 5506 5503 5499 5496 5493 5490 5488 5491 5496 5494 5492 5490 5489 5488 5487 5487 5487 5487 5487 5488 5488 5489 5490 5490 5491 5492 5494 5496 5498 5500 5502 5505 5507 5510
5504 5500 5498 5495 5493 5490 5487 5485 5483 5481 5478 5477 5482 5482 5480 5478 5477 5477 5476 5476 5476 5476 5475 5476 5476 5477 5477 5478 5479 5481 5483 5485 5487 5489 5491 5493 5496 5498
5492 5488 5485 5482 5480 5478 5476 5473 5471 5469 5467 5466 5468 5469 5468 5466 5463 5464 5466 5465 5465 5465 5464 5464 5465 5465 5466 5467 5468 5470 5472 5474 5476 5479 5481 5483 5485 5487
5480 5476 5473 5471 5469 5467 5465 5463 5461 5459 5457 5455 5456 5457 5457 5454 5452 5451 5452 5455 5456 5454 5454 5454 5454 5455 5456 5456 5457 5459 5461 5463 5466 5468 5470 5473 5475 5477
5468 5465 5463 5461 5459 5457 5455 5453 5451 5449 5447 5445 5446 5446 5447 5444 5441 5439 5439 5440 5445 5446 5442 5446 5444 5446 5447 5447 5448 5449 5452 5454 5456 5458 5461 5463 5465 5467
5455 5452 5452 5451 5448 5446 5445 5444 5442 5440 5438 5436 5436 5436 5436 5435 5432 5431 5429 5429 5432 5433 5430 5436 5436 5437 5438 5439 5440 5441 5443 5445 5447 5449 5452 5453 5455 5457
5442 5440 5440 5440 5438 5437 5437 5436 5435 5433 5431 5429 5428 5428 5427 5426 5423 5422 5421 5422 5424 5423 5419 5423 5427 5428 5431 5431 5431 5432 5434 5436 5438 5440 5442 5443 5446 5448
5432 5431 5430 5430 5430 5429 5428 5428 5428 5427 5425 5423 5421 5420 5420 5418 5415 5412 5411 5409 5414 5417 5412 5411 5416 5418 5422 5423 5424 5424 5425 5427 5429 5431 5433 5434 5436 5438
5423 5422 5422 5422 5422 5421 5419 5418 5419 5420 5418 5417 5415 5414 5412 5410 5407 5404 5402 5401 5402 5407 5407 5403 5406 5405 5412 5416 5415 5415 5416 5419 5421 5423 5424 5426 5428 5429
5413 5414 5414 5414 5415 5414 5412 5411 5411 5410 5409 5408 5407 5406 5404 5402 5400 5398 5395 5393 5394 5397 5398 5395 5396 5396 5396 5403 5407 5407 5408 5410 5412 5414 5416 5419 5421 5422
5404 5405 5406 5407 5407 5406 5404 5404 5403 5401 5399 5398 5397 5396 5395 5394 5393 5392 5390 5389 5388 5389 5390 5388 5388 5389 5390 5393 5397 5400 5401 5402 5404 5407 5410 5413 5415 5416
5396 5397 5398 5399 5398 5397 5396 5395 5393 5391 5389 5387 5387 5386 5385 5384 5384 5384 5384 5384 5384 5384 5384 5383 5383 5383 5384 5387 5389 5390 5393 5395 5397 5400 5403 5405 5407 5409
5386 5388 5389 5389 5388 5387 5386 5385 5383 5381 5379 5378 5377 5376 5376 5376 5375 5375 5376 5377 5378 5380 5379 5378 5377 5377 5379 5380 5381 5383 5385 5387 5390 5392 5395 5398 5401 5404
5377 5377 5377 5377 5376 5376 5375 5374 5372 5371 5369 5368 5367 5367 5368 5368 5367 5367 5368 5369 5370 5371 5372 5372 5372 5372 5372 5374 5376 5377 5379 5381 5383 5386 5389 5393 5397 5399
5367 5365 5365 5364 5364 5364 5364 5363 5362 5361 5361 5360 5359 5359 5359 5360 5360 5360 5361 5362 5363 5364 5365 5366 5366 5368 5369 5370 5370 5372 5374 5376 5379 5381 5383 5387 5393 5396
5355 5354 5353 5353 5353 5353 5352 5352 5352 5352 5352 5351 5351 5351 5351 5352 5352 5353 5354 5355 5356 5358 5359 5359 5361 5363 5366 5368 5367 5368 5369 5372 5375 5377 5379 5383 5388 5392
5343 5342 5342 5342 5342 5342 5342 5342 5342 5343 5343 5343 5343 5343 5344 5345 5345 5346 5347 5348 5350 5352 5354 5355 5356 5358 5360 5362 5363 5365 5366 5368 5371 5374 5377 5380 5384 5389
5332 5331 5331 5331 5331 5331 5332 5332 5333 5334 5334 5335 5336 5337 5338 5338 5339 5340 5341 5344 5345 5347 5350 5352 5353 5355 5356 5358 5360 5362 5363 5364 5367 5370 5374 5377 5381 5386
5322 5321 5321 5321 5321 5322 5323 5323 5324 5326 5327 5328 5330 5331 5332 5333 5333 5335 5337 5339 5341 5343 5346 5348 5350 5352 5353 5356 5358 5358 5360 5362 5364 5368 5371 5375 5378 5383
5312 5312 5312 5312 5313 5313 5314 5315 5317 5318 5320 5322 5324 5326 5327 5328 5329 5331 5333 5336 5338 5340 5342 5345 5347 5349 5350 5352 5353 5354 5355 5358 5361 5365 5368 5372 5377 5381